Location: ????
(32.1228°N, 34.8377°E)
Time: 00:37:37
(UTC+00:00)

SJ 16-02 - Pass Details

Date: 21 September 2020
Orbit: 606 x 616 km, 75.0° (Epoch: 21 October)

Event Time Altitude Azimuth Distance (km) Brightness Sun altitude
Rises 01:20:01 0° 354° (N) 2,872 4.9 -27.5°
Reaches altitude 10° 01:22:23 10° 2° (N) 1,966 4.1 -27.0°
Maximum altitude 01:26:29 39° 71° (ENE) 925 2.7 -26.2°
Drops below altitude 10° 01:30:35 10° 141° (SE) 1,961 4.2 -25.3°
Sets 01:32:56 0° 149° (SSE) 2,863 4.9 -24.9°
